This demonstration page uses our WeatherBlox Daily Observations layout. Learn more.

39.01783, -85.05884

Hourly Observations for February 20, 2020

Temp ( °F °C ) Dew Point ( °F °C ) Humidity (%) Winds ( mph kmh ) Pressure ( in mb ) Visibility ( mi km ) Precip ( " mm )
12:52 am 00:52 Cloudy 32 0 21 -6.1 64 64 N 6 9 30.49 1033 10 16.0934 0 0
1:52 am 01:52 Cloudy 31 -0.6 23 -5 72 72 N 7 11 30.48 1032 10 16.0934 0 0
2:52 am 02:52 Cloudy 31 -0.6 22 -5.6 69 69 NNE 8 13 30.48 1032 10 16.0934 0 0
3:52 am 03:52 Cloudy 31 -0.6 21 -6.1 67 67 N 10 17 30.47 1032 10 16.0934 0 0
4:52 am 04:52 Cloudy 30 -1.1 22 -5.6 72 72 N 15 24 30.48 1032 10 16.0934 0 0
5:52 am 05:52 Cloudy 29 -1.7 21 -6.1 72 72 N 10 17 30.49 1033 10 16.0934 0 0
6:52 am 06:52 Cloudy 28 -2.2 20 -6.7 72 72 NNE 13 20 30.51 1033 10 16.0934 0 0
7:52 am 07:52 Cloudy 27 -2.8 17 -8.3 66 66 N 10 17 30.54 1034 10 16.0934 0 0
8:52 am 08:52 Mostly Cloudy 27 -2.8 15 -9.4 61 61 N 13 20 30.57 1035 10 16.0934 0 0
9:52 am 09:52 Mostly Cloudy 26 -3.3 8 -13.3 46 46 NNE 14 22 30.57 1035 10 16.0934 0 0
10:52 am 10:52 Mostly Cloudy 30 -1.1 10 -12.2 43 43 NNE 16 26 30.56 1035 10 16.0934 0 0
11:52 am 11:52 Mostly Cloudy 31 -0.6 12 -11.1 45 45 NNE 15 24 30.56 1035 10 16.0934 0 0
12:52 pm 12:52 Partly Cloudy 32 0 14 -10 47 47 NNE 10 17 30.56 1035 10 16.0934 0 0
1:52 pm 13:52 Mostly Cloudy 34 1.1 16 -8.9 48 48 NNE 12 19 30.53 1034 10 16.0934 0 0
2:52 pm 14:52 Mostly Cloudy 33 0.6 16 -8.9 49 49 N 13 20 30.52 1033 10 16.0934 0 0
3:52 pm 15:52 Mostly Cloudy 31 -0.6 14 -10 49 49 N 15 24 30.52 1033 10 16.0934 0 0
4:52 pm 16:52 Mostly Cloudy 30 -1.1 14 -10 51 51 N 17 28 30.53 1034 10 16.0934 0 0
5:52 pm 17:52 Partly Cloudy 28 -2.2 12 -11.1 51 51 NNW 16 26 30.55 1034 10 16.0934 0 0
6:52 pm 18:52 Mostly Clear 26 -3.3 10 -12.2 51 51 N 15 24 30.57 1035 10 16.0934 0 0
7:52 pm 19:52 Clear 24 -4.4 10 -12.2 55 55 N 18 30 30.59 1036 10 16.0934 0 0
8:52 pm 20:52 Clear 23 -5 10 -12.2 57 57 N 12 19 30.61 1037 10 16.0934 0 0
9:52 pm 21:52 Clear 22 -5.6 10 -12.2 60 60 N 8 13 30.61 1037 10 16.0934 0 0
10:52 pm 22:52 Clear 21 -6.1 10 -12.2 62 62 N 7 11 30.63 1037 10 16.0934 0 0
11:52 pm 23:52 Clear 21 -6.1 10 -12.2 62 62 NNW 7 11 30.63 1037 10 16.0934 0 0

Powered by AerisWeather